Satellite: NO-44
Catalog number: 26931
Epoch time:      10048.64093583
Element set:     389
Inclination:      067.0536 deg
RA of node:       151.9759 deg
Eccentricity:    0.0006615
Arg of perigee:   264.6701 deg
Mean anomaly:     095.3658 deg
Mean motion:   14.29584106 rev/day
Decay rate:       2.05e-06 rev/day^2
Epoch rev:           43766
Checksum:              327

Satellite: SO-50
Catalog number: 27607
Epoch time:      10048.87410718
Element set:     105
Inclination:      064.5605 deg
RA of node:       358.9043 deg
Eccentricity:    0.0038664
Arg of perigee:   131.7280 deg
Mean anomaly:     228.7130 deg
Mean motion:   14.71500150 rev/day
Decay rate:       1.09e-06 rev/day^2
Epoch rev:           38482
Checksum:              281

Satellite: CO-55
Catalog number: 27844
Epoch time:      10048.64995670
Element set:     782
Inclination:      098.7128 deg
RA of node:       059.3306 deg
Eccentricity:    0.0010339
Arg of perigee:   151.7469 deg
Mean anomaly:     208.4261 deg
Mean motion:   14.20684794 rev/day
Decay rate:        7.2e-07 rev/day^2
Epoch rev:           34411
Checksum:              322

Satellite: CO-57
Catalog number: 27848
Epoch time:      10049.22570490
Element set:     734
Inclination:      098.7168 deg
RA of node:       058.9746 deg
Eccentricity:    0.0010265
Arg of perigee:   153.0475 deg
Mean anomaly:     207.1255 deg
Mean motion:   14.20480532 rev/day
Decay rate:        5.9e-07 rev/day^2
Epoch rev:           34415
Checksum:              308

Satellite: AO-51
Catalog number: 28375
Epoch time:      10049.17711116
Element set:     606
Inclination:      098.0562 deg
RA of node:       049.4820 deg
Eccentricity:    0.0084692
Arg of perigee:   097.9732 deg
Mean anomaly:     263.1082 deg
Mean motion:   14.40669318 rev/day
Decay rate:        1.8e-07 rev/day^2
Epoch rev:           29637
Checksum:              316

Satellite: GENESAT1
Catalog number: 29655
Epoch time:      10049.48781854
Element set:     951
Inclination:      040.0200 deg
RA of node:       072.1131 deg
Eccentricity:    0.0005225
Arg of perigee:   196.0450 deg
Mean anomaly:     164.0199 deg
Mean motion:   15.74733911 rev/day
Decay rate:     6.3107e-04 rev/day^2
Epoch rev:           18117
Checksum:              275

Satellite: CP3
Catalog number: 31129
Epoch time:      10049.08743868
Element set:     508
Inclination:      097.9545 deg
RA of node:       094.9449 deg
Eccentricity:    0.0101411
Arg of perigee:   243.0500 deg
Mean anomaly:     116.0419 deg
Mean motion:   14.52211808 rev/day
Decay rate:       2.81e-06 rev/day^2
Epoch rev:           15057
Checksum:              282

Satellite: CO-65
Catalog number: 32785
Epoch time:      10049.30394748
Element set:     607
Inclination:      097.9102 deg
RA of node:       115.8015 deg
Eccentricity:    0.0014258
Arg of perigee:   315.0122 deg
Mean anomaly:     044.9919 deg
Mean motion:   14.81588326 rev/day
Decay rate:       5.69e-06 rev/day^2
Epoch rev:            9788
Checksum:              328

Satellite: KKS-1
Catalog number: 33493
Epoch time:      10049.74423620
Element set:     222
Inclination:      098.0712 deg
RA of node:       168.3381 deg
Eccentricity:    0.0020460
Arg of perigee:   161.0800 deg
Mean anomaly:     199.1191 deg
Mean motion:   14.80858903 rev/day
Decay rate:       8.96e-06 rev/day^2
Epoch rev:            5795
Checksum:              292

Satellite: SOHLA-1
Catalog number: 33496
Epoch time:      10048.93188030
Element set:      28
Inclination:      098.0474 deg
RA of node:       159.6314 deg
Eccentricity:    0.0005957
Arg of perigee:   214.3341 deg
Mean anomaly:     145.7466 deg
Mean motion:   14.69469362 rev/day
Decay rate:        3.9e-07 rev/day^2
Epoch rev:            5736
Checksum:              313

/EX
SB KEPS @ AMSAT  $ORB10049.W
Orbital Elements  10049.WEATHER

HR AMSAT ORBITAL ELEMENTS FOR WEATHER SATELLITES
FROM WA5QGD FORT WORTH,TX February 18, 2010
Send Subscribe/unsubscribe to KEPS at http://www.amsat.org/mailman/listinfo/kep
BID: ORB10049.W
TO ALL RADIO AMATEURS BT

Satellite: NOAA-10
Catalog number: 16969
Epoch time:      10049.26910014
Element set:     961
Inclination:      098.6697 deg
RA of node:       079.2832 deg
Eccentricity:    0.0012092
Arg of perigee:   195.3395 deg
Mean anomaly:     164.7420 deg
Mean motion:   14.27406573 rev/day
Decay rate:       -5.8e-07 rev/day^2
Epoch rev:           21861
Checksum:              316

Satellite: NOAA-11
Catalog number: 19531
Epoch time:      10049.29792657
Element set:     977
Inclination:      098.7708 deg
RA of node:       140.3448 deg
Eccentricity:    0.0012024
Arg of perigee:   124.1782 deg
Mean anomaly:     236.0546 deg
Mean motion:   14.14916365 rev/day
Decay rate:       2.81e-06 rev/day^2
Epoch rev:           10432
Checksum:              299

Satellite: NOAA-12
Catalog number: 21263
Epoch time:      10049.45904365
Element set:     458
Inclination:      098.7694 deg
RA of node:       062.6113 deg
Eccentricity:    0.0012950
Arg of perigee:   148.2028 deg
Mean anomaly:     211.9942 deg
Mean motion:   14.25616746 rev/day
Decay rate:        1.2e-07 rev/day^2
Epoch rev:           97548
Checksum:              305

